Simultaneous Nadir Overpasses (SNOs) Predictions

Prediction of SNOs between NPP and PACE Satellite Orbit:

Table of predicted SNOs for the next 14.0 days since TLE Epoch: 7/15/2024
Index Date (NPP) Time (NPP) Lat,Lon (NPP) SZA (NPP ) Date (PACE) Time (PACE) Lat,Lon (PACE) SZA (PACE ) Distance(km) Time Diff (sec)
1 07/15/2024 20:27:18 -80.03, 14.13 118.79 07/15/2024 20:28:21 -80.02, 14.20 118.83 1.60 63
2 07/15/2024 21:17:56 79.80,-176.31 60.79 07/15/2024 21:17:25 79.81,-176.43 60.83 2.60 31
3 07/18/2024 00:53:45 -79.99, -52.04 118.49 07/18/2024 00:54:17 -79.99, -51.99 118.52 0.93 32
4 07/18/2024 01:44:25 79.82, 116.91 61.20 07/18/2024 01:43:22 79.81, 117.07 61.21 3.16 63
5 07/20/2024 05:20:09 -79.86,-117.38 118.34 07/20/2024 05:20:10 -79.87,-117.53 118.31 3.13 1
6 07/22/2024
